GW5134 Weather Reports


time (UTC)temp
C
wind
direction
speed
KPH
gust
KPH
rain 1hr
cm
rain 24hr
cm
rain mn
cm
humidity
%
barometer
mb
20260503225844 13 215 9.7 14.5 0.00 0.00 0.00 35 1018.1
20260503225339 13 206 6.4 9.7 0.00 0.00 0.00 34 1018.3
20260503224836 13 274 0.0 3.2 0.00 0.00 0.00 35 1018.2
20260503224333 13 259 6.4 9.7 0.00 0.00 0.00 36 1018.2
20260503223831 14 279 1.6 12.9 0.00 0.00 0.00 37 1018.2
20260503223328 14 274 6.4 14.5 0.00 0.00 0.00 36 1018.3
20260503222824 13 244 3.2 4.8 0.00 0.00 0.00 35 1018.1
20260503222323 13 253 3.2 9.7 0.00 0.00 0.00 35 1018.2
20260503221820 13 244 9.7 12.9 0.00 0.00 0.00 37 1018.3
20260503221319 15 308 1.6 11.3 0.00 0.00 0.00 34 1018.1
20260503220814 14 106 6.4 9.7 0.00 0.00 0.00 37 1018.1
20260503220312 14 198 3.2 9.7 0.00 0.00 0.00 35 1018.1
20260503215808 15 253 4.8 11.3 0.00 0.00 0.00 35 1018.2
20260503215305 15 329 4.8 6.4 0.00 0.00 0.00 37 1018.0
20260503214803 14 252 1.6 9.7 0.00 0.00 0.00 34 1018.2
20260503214300 14 347 3.2 6.4 0.00 0.00 0.00 40 1018.0
20260503213758 14 328 0.0 11.3 0.00 0.00 0.00 38 1018.0
20260503213255 15 304 3.2 4.8 0.00 0.00 0.00 37 1018.0
20260503212752 13 294 4.8 6.4 0.00 0.00 0.00 34 1018.2
20260503212249 13 323 3.2 11.3 0.00 0.00 0.00 40 1018.2
20260503211747 13 265 8.0 17.7 0.00 0.00 0.00 37 1018.3
20260503211243 13 215 8.0 14.5 0.00 0.00 0.00 36 1018.2
20260503210738 15 333 0.0 6.4 0.00 0.00 0.00 34 1018.2
20260503210236 14 318 3.2 11.3 0.00 0.00 0.00 40 1018.4
20260503205731 13 6 6.4 11.3 0.00 0.00 0.00 35 1018.1
20260503205228 14 268 4.8 4.8 0.00 0.00 0.00 37 1018.5
20260503204724 14 322 8.0 12.9 0.00 0.00 0.00 37 1018.5
20260503204222 13 308 12.9 14.5 0.00 0.00 0.00 37 1018.6
20260503203719 14 333 1.6 11.3 0.00 0.00 0.00 40 1018.6
20260503203217 14 309 9.7 14.5 0.00 0.00 0.00 36 1018.6
20260503202714 14 316 3.2 6.4 0.00 0.00 0.00 38 1018.7
20260503202212 13 251 1.6 9.7 0.00 0.00 0.00 37 1018.9
20260503201709 13 310 3.2 4.8 0.00 0.00 0.00 40 1018.8
20260503201206 13 20 4.8 12.9 0.00 0.00 0.00 39 1018.9
20260503200703 13 261 9.7 16.1 0.00 0.00 0.00 38 1019.0
20260503200159 13 252 4.8 6.4 0.00 0.00 0.00 36 1019.2
20260503195656 13 219 8.0 11.3 0.00 0.00 0.00 40 1019.2
20260503195153 13 239 0.0 12.9 0.00 0.00 0.00 38 1019.6
20260503194650 13 274 3.2 12.9 0.00 0.00 0.00 38 1019.4
20260503194145 13 309 0.0 6.4 0.00 0.00 0.00 40 1019.5
20260503193642 13 320 6.4 24.1 0.00 0.00 0.00 36 1019.7
20260503193138 13 8 0.0 6.4 0.00 0.00 0.00 36 1019.6
20260503192634 13 200 17.7 17.7 0.00 0.00 0.00 39 1020.0
20260503192129 13 257 1.6 11.3 0.00 0.00 0.00 36 1019.7
20260503191626 13 239 9.7 16.1 0.00 0.00 0.00 43 1020.0
20260503191124 12 251 12.9 17.7 0.00 0.00 0.00 40 1020.2
20260503190620 13 227 12.9 24.1 0.00 0.00 0.00 40 1020.0
20260503190117 13 209 0.0 4.8 0.00 0.00 0.00 38 1020.0
20260503185614 13 324 8.0 12.9 0.00 0.00 0.00 41 1020.3
20260503185114 12 330 1.6 20.9 0.00 0.00 0.00 41 1020.2
20260503184609 12 306 9.7 12.9 0.00 0.00 0.00 43 1020.3
20260503184106 12 195 14.5 16.1 0.00 0.00 0.00 43 1020.3
20260503183603 12 206 4.8 11.3 0.00 0.00 0.00 42 1020.3
20260503183100 12 67 0.0 4.8 0.00 0.00 0.00 35 1020.3
20260503182558 12 268 1.6 12.9 0.00 0.00 0.00 36 1020.4
20260503182056 12 288 6.4 11.3 0.00 0.00 0.00 46 1020.7
20260503181553 12 271 8.0 16.1 0.00 0.00 0.00 37 1020.5
20260503181049 12 235 8.0 12.9 0.00 0.00 0.00 41 1020.6
20260503180547 12 14 6.4 9.7 0.00 0.00 0.00 39 1020.5
20260503180044 11 240 4.8 6.4 0.00 0.00 0.00 46 1020.8
20260503175541 11 5 0.0 3.2 0.00 0.00 0.00 44 1020.8
20260503175038 11 73 6.4 11.3 0.00 0.00 0.00 41 1020.8
20260503174536 11 227 9.7 25.7 0.00 0.00 0.00 44 1020.8
20260503174032 11 211 11.3 12.9 0.00 0.00 0.00 45 1020.7
20260503173527 11 122 3.2 12.9 0.00 0.00 0.00 42 1021.0
20260503173023 11 252 12.9 20.9 0.00 0.00 0.00 44 1021.2
20260503172521 11 214 20.9 24.1 0.00 0.00 0.00 46 1021.0
20260503172018 11 216 9.7 12.9 0.00 0.00 0.00 51 1021.1
20260503171514 11 249 0.0 9.7 0.00 0.00 0.00 49 1021.3
20260503171012 11 316 6.4 17.7 0.00 0.00 0.00 49 1021.3
20260503170508 11 300 8.0 16.1 0.00 0.00 0.00 50 1021.3
20260503150900 8 347 9.7 12.9 0.00 0.00 0.00 57 1022.1
20260503150356 8 277 12.9 17.7 0.00 0.00 0.00 55 1022.3
20260503131250 5 111 0.0 4.8 0.00 0.00 0.00 72 1022.2
20260503130748 5 217 3.2 4.8 0.00 0.00 0.00 71 1022.2
20260503130245 5 240 0.0 3.2 0.00 0.00 0.00 73 1022.2
20260503120211 1 210 0.0 3.2 0.00 0.00 0.00 93 1022.1
20260503110638 -1 243 0.0 0.0 0.00 0.00 0.00 94 1021.3
20260503110136 -1 264 0.0 0.0 0.00 0.00 0.00 93 1021.2
20260503081452 0 322 0.0 0.0 0.00 0.00 0.00 92 1020.1
20260503080949 0 322 0.0 0.0 0.00 0.00 0.00 91 1020.1
20260503080445 0 321 0.0 0.0 0.00 0.00 0.00 91 1020.1
20260503072921 0 338 0.0 0.0 0.00 0.00 0.00 91 1019.6
20260503072419 1 325 0.0 0.0 0.00 0.00 0.00 91 1019.5
20260503071916 1 331 0.0 0.0 0.00 0.00 0.00 91 1019.5
20260503071413 1 323 0.0 0.0 0.00 0.00 0.00 91 1019.5
20260503070909 1 306 0.0 0.0 0.00 0.00 0.00 91 1019.4
20260503070406 1 303 0.0 0.0 0.00 0.00 0.00 91 1019.4
20260503060332 0 326 0.0 0.0 0.00 0.00 0.00 90 1019.5
20260503054820 0 322 0.0 0.0 0.00 0.00 0.00 90 1019.4
20260503054315 0 322 0.0 0.0 0.00 0.00 0.00 89 1019.7
20260503053814 0 322 0.0 0.0 0.00 0.00 0.00 89 1019.5
20260503053312 0 321 0.0 0.0 0.00 0.00 0.00 89 1019.4
20260503052808 0 316 0.0 0.0 0.00 0.00 0.00 89 1019.4
20260503052305 0 320 0.0 0.0 0.00 0.00 0.00 89 1019.5
20260503051800 0 312 0.0 0.0 0.00 0.00 0.00 88 1019.4
20260503051257 0 312 0.0 0.0 0.00 0.00 0.00 88 1019.2
20260503050754 0 312 0.0 0.0 0.00 0.00 0.00 88 1019.4
20260503050250 0 313 0.0 0.0 0.00 0.00 0.00 88 1019.3
20260503045748 0 312 0.0 0.0 0.00 0.00 0.00 87 1019.4
20260503045246 0 314 0.0 0.0 0.00 0.00 0.00 87 1019.4
20260503044741 0 337 0.0 0.0 0.00 0.00 0.00 87 1019.1
20260503044239 0 340 0.0 0.0 0.00 0.00 0.00 86 1019.2
20260503043736 1 341 0.0 0.0 0.00 0.00 0.00 86 1019.3
20260503043233 1 353 0.0 0.0 0.00 0.00 0.00 85 1019.3
20260503042729 1 353 0.0 0.0 0.00 0.00 0.00 85 1019.3
20260503042226 1 352 0.0 0.0 0.00 0.00 0.00 85 1019.4
20260503041722 1 352 0.0 0.0 0.00 0.00 0.00 85 1019.2
20260503041220 1 352 0.0 0.0 0.00 0.00 0.00 84 1019.1
20260503040717 1 352 0.0 0.0 0.00 0.00 0.00 84 1019.5
20260503040215 1 355 0.0 0.0 0.00 0.00 0.00 83 1019.3
20260503035711 1 353 0.0 0.0 0.00 0.00 0.00 82 1019.3
20260503035209 2 350 0.0 0.0 0.00 0.00 0.00 82 1019.4
20260503034706 2 0 0.0 0.0 0.00 0.00 0.00 81 1019.3
20260503034203 2 341 0.0 0.0 0.00 0.00 0.00 81 1019.4
20260503033700 2 345 0.0 0.0 0.00 0.00 0.00 80 1019.4
20260503033158 2 337 0.0 0.0 0.00 0.00 0.00 80 1019.4
20260503032655 2 340 0.0 0.0 0.00 0.00 0.00 80 1019.3
20260503032154 3 338 0.0 0.0 0.00 0.00 0.00 79 1019.4
20260503031651 3 330 0.0 0.0 0.00 0.00 0.00 78 1019.3
20260503031149 3 327 0.0 0.0 0.00 0.00 0.00 78 1019.5
20260503030644 3 337 0.0 0.0 0.00 0.00 0.00 77 1019.4
20260503030142 4 335 0.0 0.0 0.00 0.00 0.00 74 1019.2
20260503025638 4 308 0.0 0.0 0.00 0.00 0.00 73 1019.2
20260503025136 4 311 0.0 0.0 0.00 0.00 0.00 74 1019.4
20260503024632 4 308 1.6 3.2 0.00 0.00 0.00 71 1019.2
20260503024130 4 312 0.0 0.0 0.00 0.00 0.00 73 1019.2
20260503023627 4 311 0.0 4.8 0.00 0.00 0.00 71 1019.2
20260503023124 5 289 0.0 0.0 0.00 0.00 0.00 70 1019.3
20260503022619 5 307 1.6 3.2 0.00 0.00 0.00 68 1019.2
20260503022114 5 294 0.0 1.6 0.00 0.00 0.00 68 1019.3
20260503021611 5 312 0.0 1.6 0.00 0.00 0.00 70 1019.0
20260503021108 5 305 1.6 4.8 0.00 0.00 0.00 67 1019.3
20260503020605 5 287 1.6 6.4 0.00 0.00 0.00 68 1019.1
20260503015559 5 307 4.8 6.4 0.00 0.00 0.00 67 1019.2
20260503015056 5 303 3.2 6.4 0.00 0.00 0.00 67 1019.1
20260503014552 5 317 3.2 4.8 0.00 0.00 0.00 67 1018.9
20260503014050 5 320 3.2 3.2 0.00 0.00 0.00 68 1018.8
20260503013547 5 307 0.0 1.6 0.00 0.00 0.00 68 1018.8
20260503013045 5 306 0.0 1.6 0.00 0.00 0.00 69 1019.0
20260503012542 5 310 1.6 3.2 0.00 0.00 0.00 66 1018.9
20260503012038 5 317 0.0 0.0 0.00 0.00 0.00 69 1018.8
20260503011535 6 316 0.0 0.0 0.00 0.00 0.00 66 1018.5
20260503011032 6 304 1.6 1.6 0.00 0.00 0.00 65 1018.5
20260503010528 6 313 1.6 4.8 0.00 0.00 0.00 65 1018.5
20260503010026 6 313 3.2 4.8 0.00 0.00 0.00 63 1018.5
20260503005523 6 333 6.4 6.4 0.00 0.00 0.00 64 1018.5
20260503005020 6 310 6.4 9.7 0.00 0.00 0.00 61 1018.5
20260503004516 6 317 4.8 4.8 0.00 0.00 0.00 59 1018.3
20260503004015 7 311 4.8 11.3 0.00 0.00 0.00 59 1018.2
20260503003511 7 309 4.8 11.3 0.00 0.00 0.00 59 1018.1
20260503003008 7 314 8.0 11.3 0.00 0.00 0.00 58 1018.0
20260503002505 7 299 3.2 14.5 0.00 0.00 0.00 57 1018.0
20260503002001 7 285 6.4 9.7 0.00 0.00 0.00 57 1018.0
20260503001458 7 304 6.4 12.9 0.00 0.00 0.00 57 1017.9
20260503000956 7 320 9.7 11.3 0.00 0.00 0.00 56 1017.8
20260503000453 7 324 3.2 9.7 0.00 0.00 0.00 55 1017.9
20260502235950 7 303 4.8 6.4 0.00 0.00 0.00 56 1017.7
20260502235446 7 298 6.4 16.1 0.00 0.00 0.00 55 1017.8
20260502234944 7 354 6.4 9.7 0.00 0.00 0.00 56 1017.6
20260502234440 8 286 8.0 12.9 0.00 0.00 0.00 54 1017.4
20260502233938 8 313 4.8 12.9 0.00 0.00 0.00 54 1017.4
20260502233433 8 286 8.0 12.9 0.00 0.00 0.00 52 1017.3
20260502232930 8 325 4.8 12.9 0.00 0.00 0.00 51 1017.4
20260502232427 8 321 8.0 9.7 0.00 0.00 0.00 50 1017.2
20260502231924 8 303 9.7 11.3 0.00 0.00 0.00 48 1017.1
20260502231421 8 307 9.7 14.5 0.00 0.00 0.00 50 1017.0
20260502230919 8 257 6.4 9.7 0.00 0.00 0.00 46 1016.9
20260502230417 8 323 1.6 9.7 0.00 0.00 0.00 50 1017.1